Time,TemperatureF,DewpointF,PressureIn,WindDirection,WindDirectionDegrees,WindSpeedMPH,WindSpeedGustMPH,Humidity,HourlyPrecipIn,Conditions,Clouds,dailyrainin,SoftwareType,DateUTC
2013-04-05 00:04:00,38.5,36.0,30.11,South,190,0.0,1.0,91,0.03,,,0.07,weatherlink.com 1.10,2013-04-05 04:04:00,
2013-04-05 00:19:00,38.4,36.0,30.10,South,180,0.0,3.0,92,0.03,,,0.00,weatherlink.com 1.10,2013-04-05 04:19:00,
2013-04-05 00:34:00,38.3,36.0,30.09,SSE,157,0.0,1.0,92,0.04,,,0.02,weatherlink.com 1.10,2013-04-05 04:34:00,
2013-04-05 00:49:00,38.3,36.0,30.08,SSE,157,0.0,1.0,92,0.06,,,0.04,weatherlink.com 1.10,2013-04-05 04:49:00,
2013-04-05 01:04:00,38.4,37.0,30.06,SSE,157,0.0,1.0,93,0.06,,,0.05,weatherlink.com 1.10,2013-04-05 05:04:00,
2013-04-05 01:19:00,38.5,37.0,30.05,SSE,157,0.0,2.0,93,0.06,,,0.06,weatherlink.com 1.10,2013-04-05 05:19:00,
2013-04-05 01:34:00,38.4,37.0,30.05,SSE,157,0.0,1.0,93,0.05,,,0.07,weatherlink.com 1.10,2013-04-05 05:34:00,
2013-04-05 01:50:00,38.3,37.0,30.03,ENE,65,0.0,3.0,93,0.04,,,0.08,weatherlink.com 1.10,2013-04-05 05:50:00,
2013-04-05 02:04:00,38.1,36.0,30.02,ENE,65,0.0,0.0,93,0.04,,,0.10,weatherlink.com 1.10,2013-04-05 06:04:00,
2013-04-05 02:19:00,38.1,37.0,30.00,ENE,65,0.0,0.0,94,0.05,,,0.11,weatherlink.com 1.10,2013-04-05 06:19:00,
2013-04-05 02:34:00,38.0,37.0,29.99,ENE,65,0.0,0.0,94,0.05,,,0.13,weatherlink.com 1.10,2013-04-05 06:34:00,
2013-04-05 02:49:00,38.0,37.0,29.98,ENE,65,0.0,1.0,94,0.07,,,0.15,weatherlink.com 1.10,2013-04-05 06:49:00,
2013-04-05 03:05:00,38.0,37.0,29.98,ENE,65,0.0,0.0,94,0.07,,,0.17,weatherlink.com 1.10,2013-04-05 07:05:00,
2013-04-05 03:19:00,38.0,37.0,29.96,ENE,65,0.0,1.0,94,0.07,,,0.18,weatherlink.com 1.10,2013-04-05 07:19:00,
2013-04-05 03:35:00,37.9,36.0,29.95,ENE,65,0.0,2.0,94,0.07,,,0.20,weatherlink.com 1.10,2013-04-05 07:35:00,
2013-04-05 03:50:00,37.9,36.0,29.94,ENE,65,0.0,2.0,94,0.06,,,0.21,weatherlink.com 1.10,2013-04-05 07:50:00,
2013-04-05 04:05:00,37.8,37.0,29.96,NE,35,0.0,3.0,95,0.05,,,0.22,weatherlink.com 1.10,2013-04-05 08:05:00,
2013-04-05 04:20:00,37.8,37.0,29.95,North,5,1.0,3.0,95,0.05,,,0.23,weatherlink.com 1.10,2013-04-05 08:20:00,
2013-04-05 04:35:00,37.7,36.0,29.94,NNW,336,0.0,3.0,95,0.04,,,0.24,weatherlink.com 1.10,2013-04-05 08:35:00,
2013-04-05 04:50:00,37.7,36.0,29.94,NNE,14,0.0,3.0,95,0.03,,,0.24,weatherlink.com 1.10,2013-04-05 08:50:00,
2013-04-05 05:05:00,37.7,36.0,29.93,NNE,31,0.0,3.0,95,0.03,,,0.25,weatherlink.com 1.10,2013-04-05 09:05:00,
2013-04-05 05:20:00,37.8,37.0,29.94,NNW,334,0.0,3.0,95,0.03,,,0.26,weatherlink.com 1.10,2013-04-05 09:20:00,
2013-04-05 05:35:00,38.1,37.0,29.93,NNW,334,0.0,1.0,95,0.02,,,0.26,weatherlink.com 1.10,2013-04-05 09:35:00,
2013-04-05 05:50:00,38.3,37.0,29.93,NNW,346,0.0,2.0,95,0.03,,,0.27,weatherlink.com 1.10,2013-04-05 09:50:00,
2013-04-05 06:05:00,38.4,37.0,29.92,NNW,346,0.0,3.0,95,0.03,,,0.28,weatherlink.com 1.10,2013-04-05 10:05:00,
2013-04-05 06:20:00,38.4,37.0,29.93,NNW,346,0.0,1.0,95,0.02,,,0.28,weatherlink.com 1.10,2013-04-05 10:20:00,
2013-04-05 06:35:00,38.2,37.0,29.91,NNW,346,0.0,2.0,95,0.02,,,0.28,weatherlink.com 1.10,2013-04-05 10:35:00,
2013-04-05 06:50:00,38.1,37.0,29.91,NNW,346,0.0,1.0,95,0.02,,,0.29,weatherlink.com 1.10,2013-04-05 10:50:00,
2013-04-05 07:05:00,38.2,37.0,29.92,NNW,346,0.0,2.0,95,0.02,,,0.30,weatherlink.com 1.10,2013-04-05 11:05:00,
2013-04-05 07:20:00,38.3,37.0,29.92,NW,315,1.0,3.0,95,0.02,,,0.30,weatherlink.com 1.10,2013-04-05 11:20:00,
2013-04-05 07:35:00,38.6,37.0,29.91,WNW,298,0.0,2.0,95,0.03,,,0.31,weatherlink.com 1.10,2013-04-05 11:35:00,
2013-04-05 07:50:00,39.0,38.0,29.92,WNW,298,2.0,2.0,95,0.03,,,0.32,weatherlink.com 1.10,2013-04-05 11:50:00,
2013-04-05 08:05:00,39.3,38.0,29.91,WNW,298,1.0,2.0,95,0.02,,,0.32,weatherlink.com 1.10,2013-04-05 12:05:00,
2013-04-05 08:20:00,39.7,38.0,29.91,WNW,299,0.0,4.0,95,0.03,,,0.33,weatherlink.com 1.10,2013-04-05 12:20:00,
2013-04-05 08:35:00,40.0,39.0,29.92,NW,312,3.0,5.0,95,0.03,,,0.34,weatherlink.com 1.10,2013-04-05 12:35:00,
2013-04-05 08:50:00,40.0,39.0,29.92,NW,321,2.0,5.0,94,0.02,,,0.34,weatherlink.com 1.10,2013-04-05 12:50:00,
2013-04-05 09:05:00,40.4,39.0,29.92,West,281,1.0,5.0,95,0.02,,,0.34,weatherlink.com 1.10,2013-04-05 13:05:00,
2013-04-05 09:20:00,41.4,40.0,29.91,NW,316,2.0,6.0,94,0.01,,,0.34,weatherlink.com 1.10,2013-04-05 13:20:00,
2013-04-05 09:35:00,41.3,39.0,29.90,WNW,286,2.0,5.0,92,0.00,,,0.34,weatherlink.com 1.10,2013-04-05 13:35:00,
2013-04-05 09:50:00,41.9,40.0,29.90,WNW,299,2.0,7.0,92,0.01,,,0.35,weatherlink.com 1.10,2013-04-05 13:50:00,
2013-04-05 10:05:00,42.5,40.0,29.91,NW,308,0.0,4.0,91,0.01,,,0.35,weatherlink.com 1.10,2013-04-05 14:05:00,
2013-04-05 10:35:00,44.5,40.0,29.91,NW,316,2.0,5.0,83,0.02,,,0.36,weatherlink.com 1.10,2013-04-05 14:35:00,
2013-04-05 10:50:00,44.9,39.0,29.91,West,277,2.0,5.0,81,0.01,,,0.36,weatherlink.com 1.10,2013-04-05 14:50:00,
2013-04-05 11:05:00,45.4,40.0,29.90,NW,306,1.0,4.0,80,0.01,,,0.36,weatherlink.com 1.10,2013-04-05 15:05:00,
2013-04-05 11:20:00,46.9,41.0,29.90,WSW,256,3.0,4.0,80,0.00,,,0.36,weatherlink.com 1.10,2013-04-05 15:20:00,
2013-04-05 11:35:00,47.6,40.0,29.90,NNW,331,3.0,6.0,74,0.00,,,0.36,weatherlink.com 1.10,2013-04-05 15:35:00,
2013-04-05 11:51:00,48.2,40.0,29.89,West,278,2.0,6.0,73,0.00,,,0.36,weatherlink.com 1.10,2013-04-05 15:51:00,
2013-04-05 12:06:00,49.0,38.0,29.88,NW,307,2.0,8.0,67,0.00,,,0.36,weatherlink.com 1.10,2013-04-05 16:06:00,
2013-04-05 12:51:00,52.0,40.0,29.87,NW,324,2.0,4.0,65,0.02,,,0.38,weatherlink.com 1.10,2013-04-05 16:51:00,
2013-04-05 13:06:00,53.0,41.0,29.86,WNW,291,0.0,5.0,64,0.02,,,0.38,weatherlink.com 1.10,2013-04-05 17:06:00,
2013-04-05 13:21:00,54.6,39.0,29.86,NNE,30,0.0,4.0,57,0.01,,,0.38,weatherlink.com 1.10,2013-04-05 17:21:00,
2013-04-05 13:51:00,55.9,37.0,29.85,NNW,327,1.0,5.0,49,0.02,,,0.40,weatherlink.com 1.10,2013-04-05 17:51:00,
2013-04-05 14:06:00,57.3,35.0,29.84,North,9,2.0,4.0,44,0.04,,,0.42,weatherlink.com 1.10,2013-04-05 18:06:00,
2013-04-05 14:21:00,57.8,35.0,29.83,NW,305,4.0,6.0,43,0.06,,,0.44,weatherlink.com 1.10,2013-04-05 18:21:00,
2013-04-05 14:51:00,58.4,31.0,29.82,WNW,300,2.0,6.0,36,0.12,,,0.52,weatherlink.com 1.10,2013-04-05 18:51:00,
2013-04-05 15:06:00,58.8,33.0,29.82,WNW,302,2.0,5.0,38,0.14,,,0.56,weatherlink.com 1.10,2013-04-05 19:06:00,
2013-04-05 15:21:00,59.0,32.0,29.81,WNW,294,2.0,5.0,36,0.16,,,0.60,weatherlink.com 1.10,2013-04-05 19:21:00,
2013-04-05 15:36:00,59.1,30.0,29.81,WNW,290,1.0,5.0,33,0.13,,,0.61,weatherlink.com 1.10,2013-04-05 19:36:00,
2013-04-05 15:51:00,59.8,30.0,29.81,NW,307,0.0,3.0,32,0.09,,,0.61,weatherlink.com 1.10,2013-04-05 19:51:00,
2013-04-05 16:07:00,61.0,32.0,29.81,SW,219,1.0,4.0,33,0.04,,,0.61,weatherlink.com 1.10,2013-04-05 20:07:00,
2013-04-05 16:21:00,61.8,31.0,29.81,South,183,1.0,5.0,31,0.01,,,0.61,weatherlink.com 1.10,2013-04-05 20:21:00,
2013-04-05 16:36:00,62.1,31.0,29.81,South,190,3.0,4.0,31,0.00,,,0.61,weatherlink.com 1.10,2013-04-05 20:36:00,
2013-04-05 16:51:00,61.6,34.0,29.82,SW,228,0.0,4.0,35,0.00,,,0.61,weatherlink.com 1.10,2013-04-05 20:51:00,
2013-04-05 17:07:00,62.7,30.0,29.82,SSE,157,0.0,3.0,29,0.00,,,0.61,weatherlink.com 1.10,2013-04-05 21:07:00,
2013-04-05 17:22:00,62.1,35.0,29.82,South,171,1.0,4.0,37,0.00,,,0.61,weatherlink.com 1.10,2013-04-05 21:22:00,
2013-04-05 17:37:00,61.2,35.0,29.82,SSW,211,2.0,3.0,38,0.00,,,0.61,weatherlink.com 1.10,2013-04-05 21:37:00,
2013-04-05 17:52:00,60.4,34.0,29.82,SE,127,0.0,2.0,38,0.00,,,0.61,weatherlink.com 1.10,2013-04-05 21:52:00,
2013-04-05 18:07:00,59.4,37.0,29.83,SSW,207,1.0,3.0,43,0.00,,,0.61,weatherlink.com 1.10,2013-04-05 22:07:00,
2013-04-05 18:22:00,58.4,35.0,29.83,South,178,0.0,3.0,42,0.00,,,0.61,weatherlink.com 1.10,2013-04-05 22:22:00,
2013-04-05 18:37:00,57.5,36.0,29.84,South,178,0.0,2.0,44,0.00,,,0.61,weatherlink.com 1.10,2013-04-05 22:37:00,
2013-04-05 18:52:00,56.6,38.0,29.85,South,178,0.0,0.0,50,0.00,,,0.61,weatherlink.com 1.10,2013-04-05 22:52:00,
2013-04-05 19:07:00,55.3,37.0,29.86,South,178,0.0,0.0,51,0.00,,,0.61,weatherlink.com 1.10,2013-04-05 23:07:00,
2013-04-05 19:22:00,53.9,37.0,29.86,South,178,0.0,0.0,54,0.00,,,0.61,weatherlink.com 1.10,2013-04-05 23:22:00,
2013-04-05 19:37:00,52.7,36.0,29.87,South,178,0.0,0.0,54,0.00,,,0.61,weatherlink.com 1.10,2013-04-05 23:37:00,
2013-04-05 19:52:00,51.5,37.0,29.88,South,178,0.0,0.0,59,0.00,,,0.61,weatherlink.com 1.10,2013-04-05 23:52:00,
2013-04-05 20:07:00,49.9,38.0,29.89,South,178,0.0,0.0,65,0.00,,,0.61,weatherlink.com 1.10,2013-04-06 00:07:00,
2013-04-05 20:22:00,49.8,35.0,29.90,West,275,2.0,6.0,58,0.00,,,0.61,weatherlink.com 1.10,2013-04-06 00:22:00,
2013-04-05 20:37:00,55.0,33.0,29.91,WNW,300,3.0,7.0,44,0.00,,,0.61,weatherlink.com 1.10,2013-04-06 00:37:00,
2013-04-05 20:52:00,56.3,33.0,29.93,NW,306,3.0,7.0,41,0.00,,,0.61,weatherlink.com 1.10,2013-04-06 00:52:00,
2013-04-05 21:07:00,56.1,33.0,29.93,WNW,298,2.0,5.0,42,0.00,,,0.61,weatherlink.com 1.10,2013-04-06 01:07:00,
2013-04-05 21:22:00,55.6,33.0,29.94,WNW,298,3.0,5.0,42,0.00,,,0.61,weatherlink.com 1.10,2013-04-06 01:22:00,
2013-04-05 21:37:00,55.1,32.0,29.95,NNW,327,3.0,6.0,41,0.00,,,0.61,weatherlink.com 1.10,2013-04-06 01:37:00,
2013-04-05 21:52:00,55.0,31.0,29.96,WNW,302,0.0,7.0,41,0.00,,,0.61,weatherlink.com 1.10,2013-04-06 01:52:00,
2013-04-05 22:07:00,55.0,30.0,29.96,WNW,301,1.0,5.0,39,0.00,,,0.61,weatherlink.com 1.10,2013-04-06 02:07:00,
2013-04-05 22:22:00,54.8,31.0,29.97,WNW,294,3.0,6.0,40,0.00,,,0.61,weatherlink.com 1.10,2013-04-06 02:22:00,
2013-04-05 22:37:00,54.4,30.0,29.98,WNW,293,1.0,7.0,40,0.00,,,0.61,weatherlink.com 1.10,2013-04-06 02:37:00,
2013-04-05 22:52:00,53.8,30.0,29.98,NW,305,6.0,6.0,41,0.00,,,0.61,weatherlink.com 1.10,2013-04-06 02:52:00,
2013-04-05 23:07:00,53.5,30.0,29.99,WSW,244,3.0,8.0,41,0.00,,,0.61,weatherlink.com 1.10,2013-04-06 03:07:00,
2013-04-05 23:22:00,53.3,29.0,30.00,NW,307,3.0,7.0,39,0.00,,,0.61,weatherlink.com 1.10,2013-04-06 03:22:00,
2013-04-05 23:37:00,52.9,28.0,30.00,WNW,292,4.0,5.0,38,0.00,,,0.61,weatherlink.com 1.10,2013-04-06 03:37:00,